• In Kazakhstan
  • List of Countries
  • For 7 days
  • Water Temperature
  • Weather Map
  • News
  • Weather Widgets
  • user-avatar
    Login

    Hourly Weather Pamporovo

    Today, 22 February, Saturday

    Time Temperature Precipitation Wind Pressure Humidity
    00:00 -4°C° 0.1 mm 1 mps 624 mmHg 88%
    01:00 -4°C° 0.1 mm 1 mps 624 mmHg 88%
    02:00 -3°C° 0 mm 1 mps 624 mmHg 85%
    03:00 -4°C° 0.1 mm 1 mps 624 mmHg 86%
    04:00 -4°C° 0.1 mm 1 mps 624 mmHg 86%
    05:00 -4°C° 0.1 mm 1 mps 624 mmHg 86%
    06:00 -6°C° 0 mm 2 mps 625 mmHg 85%
    07:00 -6°C° 0 mm 2 mps 625 mmHg 83%
    08:00 -6°C° 0 mm 2 mps 625 mmHg 83%
    09:00 -5°C° 0 mm 2 mps 626 mmHg 75%
    10:00 -4°C° 0 mm 2 mps 627 mmHg 68%
    11:00 -4°C° 0 mm 3 mps 627 mmHg 60%
    12:00 -2°C° 0 mm 3 mps 628 mmHg 59%
    13:00 -2°C° 0 mm 3 mps 628 mmHg 58%
    14:00 -2°C° 0 mm 3 mps 628 mmHg 58%
    15:00 -2°C° 0 mm 3 mps 628 mmHg 63%
    16:00 -4°C° 0 mm 3 mps 628 mmHg 68%
    17:00 -4°C° 0 mm 3 mps 627 mmHg 72%
    18:00 -4°C° 0.2 mm 2 mps 628 mmHg 78%
    19:00 -5°C° 0.2 mm 2 mps 628 mmHg 84%
    20:00 -4°C° 0.2 mm 1 mps 628 mmHg 91%
    21:00 -4°C° 0 mm 1 mps 627 mmHg 91%
    22:00 -6°C° 0 mm 1 mps 627 mmHg 91%
    23:00 -6°C° 0 mm 1 mps 627 mmHg 91%

    Tomorrow, 23 February, Sunday

    Time Temperature Precipitation Wind Pressure Humidity
    00:00 -6°C° 0 mm 1 mps 627 mmHg 90%
    01:00 -6°C° 0 mm 1 mps 627 mmHg 89%
    02:00 -7°C° 0 mm 1 mps 627 mmHg 87%
    03:00 -7°C° 0 mm 1 mps 627 mmHg 85%
    04:00 -7°C° 0 mm 1 mps 627 mmHg 83%
    05:00 -7°C° 0 mm 1 mps 626 mmHg 81%
    06:00 -6°C° 0 mm 1 mps 626 mmHg 75%
    07:00 -4°C° 0 mm 1 mps 627 mmHg 70%
    08:00 -4°C° 0 mm 1 mps 627 mmHg 64%
    09:00 -1°C° 0 mm 1 mps 628 mmHg 55%
    10:00 +1°C° 0 mm 1 mps 629 mmHg 46%
    11:00 +3°C° 0 mm 1 mps 629 mmHg 37%
    12:00 +4°C° 0 mm 1 mps 629 mmHg 37%
    13:00 +5°C° 0 mm 1 mps 629 mmHg 37%
    14:00 +6°C° 0 mm 1 mps 629 mmHg 37%
    15:00 +5°C° 0 mm 1 mps 628 mmHg 45%
    16:00 +4°C° 0 mm 1 mps 627 mmHg 52%
    17:00 +3°C° 0 mm 1 mps 626 mmHg 60%
    18:00 +2°C° 0 mm 1 mps 626 mmHg 61%
    19:00 +1°C° 0 mm 1 mps 626 mmHg 63%
    20:00 0°C° 0 mm 1 mps 625 mmHg 64%
    21:00 -2°C° 0 mm 2 mps 625 mmHg 63%
    22:00 -2°C° 0 mm 2 mps 625 mmHg 61%
    23:00 -2°C° 0 mm 2 mps 624 mmHg 60%

    Day after tomorrow, 24 February, Monday

    Time Temperature Precipitation Wind Pressure Humidity
    00:00 -2°C° 0 mm 2 mps 624 mmHg 59%
    01:00 -2°C° 0 mm 2 mps 624 mmHg 59%
    02:00 -1°C° 0 mm 2 mps 623 mmHg 59%
    03:00 -1°C° 0 mm 2 mps 623 mmHg 58%
    04:00 -1°C° 0 mm 2 mps 622 mmHg 56%
    05:00 -1°C° 0 mm 2 mps 622 mmHg 55%
    06:00 +1°C° 0 mm 2 mps 622 mmHg 55%
    07:00 +1°C° 0 mm 2 mps 622 mmHg 54%
    08:00 +3°C° 0 mm 1 mps 623 mmHg 54%
    09:00 +4°C° 0 mm 2 mps 624 mmHg 51%
    10:00 +5°C° 0 mm 2 mps 625 mmHg 47%
    11:00 +7°C° 0 mm 2 mps 626 mmHg 44%
    12:00 +7°C° 0 mm 2 mps 626 mmHg 45%
    13:00 +8°C° 0 mm 2 mps 626 mmHg 46%
    14:00 +8°C° 0 mm 2 mps 626 mmHg 48%
    15:00 +7°C° 0 mm 3 mps 625 mmHg 51%
    16:00 +5°C° 0 mm 3 mps 625 mmHg 55%
    17:00 +5°C° 0 mm 3 mps 625 mmHg 59%
    18:00 +4°C° 0 mm 2 mps 625 mmHg 65%
    19:00 +2°C° 0 mm 2 mps 625 mmHg 70%
    20:00 -1°C° 0 mm 2 mps 624 mmHg 76%
    21:00 0°C° 0 mm 1 mps 624 mmHg 76%
    22:00 -1°C° 0 mm 1 mps 625 mmHg 77%
    23:00 -1°C° 0 mm 1 mps 625 mmHg 78%

    25 February, Tuesday

    Time Temperature Precipitation Wind Pressure Humidity
    00:00 -2°C° 0 mm 1 mps 625 mmHg 76%
    01:00 -2°C° 0 mm 1 mps 625 mmHg 75%
    02:00 -2°C° 0 mm 1 mps 625 mmHg 73%
    03:00 -2°C° 0 mm 1 mps 624 mmHg 74%
    04:00 -2°C° 0 mm 1 mps 624 mmHg 74%
    05:00 -2°C° 0 mm 1 mps 624 mmHg 74%
    06:00 -2°C° 0 mm 1 mps 624 mmHg 76%
    07:00 -1°C° 0 mm 1 mps 624 mmHg 78%
    08:00 -1°C° 0 mm 1 mps 624 mmHg 80%
    09:00 +1°C° 0 mm 1 mps 625 mmHg 72%
    10:00 +3°C° 0 mm 1 mps 626 mmHg 64%
    11:00 +6°C° 0 mm 1 mps 626 mmHg 55%
    12:00 +5°C° 0 mm 2 mps 626 mmHg 55%
    13:00 +6°C° 0 mm 2 mps 626 mmHg 54%
    14:00 +7°C° 0 mm 2 mps 626 mmHg 54%
    15:00 +6°C° 0 mm 2 mps 625 mmHg 59%
    16:00 +5°C° 0 mm 2 mps 624 mmHg 65%
    17:00 +4°C° 0 mm 2 mps 623 mmHg 70%
    18:00 +3°C° 0 mm 2 mps 622 mmHg 75%
    19:00 +1°C° 0 mm 2 mps 621 mmHg 81%
    20:00 -1°C° 0 mm 2 mps 621 mmHg 86%
    21:00 -1°C° 0 mm 2 mps 620 mmHg 85%
    22:00 -1°C° 0 mm 2 mps 620 mmHg 84%
    23:00 -2°C° 0 mm 2 mps 619 mmHg 83%

    26 February, Wednesday

    Time Temperature Precipitation Wind Pressure Humidity
    00:00 -2°C° 0 mm 2 mps 619 mmHg 84%
    01:00 -2°C° 0 mm 2 mps 618 mmHg 85%
    02:00 -2°C° 0 mm 2 mps 618 mmHg 85%
    03:00 -2°C° 0 mm 2 mps 618 mmHg 86%
    04:00 -2°C° 0 mm 2 mps 617 mmHg 86%
    05:00 0°C° 0 mm 1 mps 617 mmHg 86%
    06:00 0°C° 0 mm 1 mps 617 mmHg 85%
    07:00 0°C° 0 mm 1 mps 617 mmHg 84%
    08:00 +1°C° 0 mm 1 mps 616 mmHg 84%
    09:00 +2°C° 0 mm 2 mps 617 mmHg 75%
    10:00 +4°C° 0 mm 2 mps 617 mmHg 67%
    11:00 +6°C° 0 mm 2 mps 618 mmHg 58%
    12:00 +5°C° 0 mm 3 mps 618 mmHg 55%
    13:00 +7°C° 0 mm 3 mps 617 mmHg 52%
    14:00 +7°C° 0 mm 4 mps 617 mmHg 50%
    15:00 +5°C° 0 mm 3 mps 616 mmHg 54%
    16:00 +4°C° 0 mm 3 mps 615 mmHg 59%
    17:00 +3°C° 0 mm 3 mps 615 mmHg 64%
    18:00 +2°C° 0 mm 3 mps 614 mmHg 72%
    19:00 +1°C° 0 mm 3 mps 614 mmHg 79%
    20:00 +1°C° 0 mm 2 mps 613 mmHg 87%
    21:00 -1°C° 0 mm 2 mps 614 mmHg 88%
    22:00 -1°C° 0 mm 2 mps 614 mmHg 90%
    23:00 -1°C° 0 mm 2 mps 614 mmHg 91%

    27 February, Thursday

    Time Temperature Precipitation Wind Pressure Humidity
    00:00 -1°C° 0 mm 2 mps 613 mmHg 92%
    01:00 -1°C° 0 mm 2 mps 613 mmHg 92%
    02:00 -2°C° 0 mm 2 mps 613 mmHg 93%
    03:00 -2°C° 0 mm 2 mps 613 mmHg 92%
    04:00 -2°C° 0 mm 2 mps 613 mmHg 92%
    05:00 -2°C° 0 mm 2 mps 612 mmHg 91%
    06:00 -2°C° 0 mm 2 mps 612 mmHg 91%
    07:00 -1°C° 0 mm 2 mps 612 mmHg 90%
    08:00 -1°C° 0 mm 2 mps 612 mmHg 90%
    09:00 0°C° 0 mm 3 mps 613 mmHg 82%
    10:00 +1°C° 0 mm 4 mps 613 mmHg 74%
    11:00 +4°C° 0 mm 4 mps 613 mmHg 65%
    12:00 +2°C° 0.4 mm 5 mps 613 mmHg 68%
    13:00 +2°C° 0.4 mm 5 mps 612 mmHg 72%
    14:00 +2°C° 0.4 mm 5 mps 611 mmHg 75%
    15:00 +1°C° 0.7 mm 5 mps 611 mmHg 76%
    16:00 0°C° 0.7 mm 4 mps 610 mmHg 78%
    17:00 0°C° 0.7 mm 3 mps 610 mmHg 80%
    18:00 -1°C° 0.1 mm 3 mps 610 mmHg 83%
    19:00 -2°C° 0.1 mm 2 mps 609 mmHg 86%
    20:00 -3°C° 0.1 mm 2 mps 609 mmHg 90%
    21:00 -3°C° 0.2 mm 2 mps 610 mmHg 90%
    22:00 -4°C° 0.2 mm 2 mps 610 mmHg 90%
    23:00 -4°C° 0.2 mm 2 mps 610 mmHg 90%
    Show more